This is the latest recevied weather packets stored in our database for station/object LX0APE-4. If no packets are shown the sender has not sent any weather packets the latest 10 day(s).
| Time | Temp. | Humidity | Pressure | Rain* | Wind** | Luminosity | Snow |
|---|---|---|---|---|---|---|---|
| 1777045038 | 28.89° C | 11% | 5016.7 hPa | 0 mm | - | - | - |
| 1777044738 | 28.89° C | 11% | 5016.7 hPa | 0 mm | - | - | - |
| 1777044438 | 29.44° C | 11% | 5016.7 hPa | 0 mm | - | - | - |
| 1777044138 | 29.44° C | 12% | 5016.6 hPa | 0 mm | - | - | - |
| 1777043838 | 29.44° C | 12% | 5016.6 hPa | 0 mm | - | - | - |
| 1777043538 | 30° C | 13% | 5016.8 hPa | 0 mm | - | - | - |
| 1777043238 | 30° C | 13% | 5017 hPa | 0 mm | - | - | - |
| 1777042938 | 30° C | 14% | 5016.8 hPa | 0 mm | - | - | - |
| 1777042638 | 30.56° C | 14% | 5016.9 hPa | 0 mm | - | - | - |
| 1777042338 | 30.56° C | 15% | 5016.9 hPa | 0 mm | - | - | - |
| 1777042038 | 29.44° C | 15% | 5016.9 hPa | 0 mm | - | - | - |
| 1777041738 | 29.44° C | 15% | 5016.9 hPa | 0 mm | - | - | - |
| 1777041438 | 29.44° C | 15% | 5017 hPa | 0 mm | - | - | - |
| 1777041138 | 28.89° C | 15% | 5017 hPa | 0 mm | - | - | - |
| 1777040838 | 29.44° C | 15% | 5017 hPa | 0 mm | - | - | - |
| 1777040538 | 28.89° C | 15% | 5017.1 hPa | 0 mm | - | - | - |
| 1777040238 | 28.89° C | 16% | 5017.1 hPa | 0 mm | - | - | - |
| 1777039938 | 28.33° C | 17% | 5017 hPa | 0 mm | - | - | - |
| 1777039638 | 27.22° C | 18% | 5017.1 hPa | 0 mm | - | - | - |
| 1777039338 | 27.22° C | 16% | 5017.1 hPa | 0 mm | - | - | - |
| 1777039038 | 27.22° C | 16% | 5017.2 hPa | 0 mm | - | - | - |
| 1777038738 | 27.78° C | 17% | 5017.3 hPa | 0 mm | - | - | - |
| 1777038438 | 27.78° C | 17% | 5017.4 hPa | 0 mm | - | - | - |
| 1777038138 | 27.22° C | 17% | 5017.5 hPa | 0 mm | - | - | - |
| 1777037843 | 27.22° C | 19% | 5017.6 hPa | 0 mm | - | - | - |
* Rain latest hour (hover to see other rain measurements)
** Current wind speed in m/s (hover to see current wind gust speed)